Weather

DAILY 7 DAY TOTAL
onrain

Note: Some stations are located near irrigated fields and may also report irrigation

Alliston Mount Forest Blyth Guelph Grand Bend Strathroy Woodstock Belmont Simcoe Leamington Chatham West Lorne






Rockwood-Bayer - Historical Weather Data
Date Max Temp (°C) Min Temp (°C) Avg Temp (°C) Rain (mm) 7Day Rain(mm) Total Rain(mm) Avg RH (%)
5/24/2018 27.5 10.0 19.6 1.0 16.0 69.6 52.8
5/23/2018 24.2 8.9 17.3 0.0 15.0 68.6 65.0
5/22/2018 16.7 9.7 13.4 3.0 15.0 68.6 89.9
5/21/2018 22.6 3.8 14.1 0.0 21.4 65.6 57.3
5/20/2018 19.0 8.5 14.0 0.4 21.4 65.6 80.8
5/19/2018 18.9 8.4 13.4 11.6 21.0 65.2 83.6
5/18/2018 16.6 7.4 12.4 0.0 9.6 53.6 38.6
5/17/2018 24.3 11.5 17.5 0.0 9.6 53.6 58.8
5/16/2018 23.8 6.9 15.8 0.0 14.0 53.6 55.4
5/15/2018 20.2 10.0 15.4 9.4 14.0 53.6 82.8
5/14/2018 22.5 7.7 15.5 0.0 4.6 44.2 71.7
5/13/2018 20.4 5.7 12.9 0.0 4.6 44.2 51.4
5/12/2018 17.0 5.3 9.9 0.2 8.0 44.2 53.0
5/11/2018 12.0 1.4 6.7 0.0 14.6 44.0 57.4
5/10/2018 17.0 2.6 13.5 4.4 26.4 44.0 75.3
5/9/2018 25.4 7.4 16.9 0.0 39.6 39.6 55.5
5/8/2018 22.1 5.0 14.2 0.0 39.6 39.6 45.8
5/7/2018 17.1 7.7 12.4 0.0 39.6 39.6 51.3
5/6/2018 18.8 9.6 13.1 3.4 39.6 39.6 66.2
5/5/2018 21.9 5.8 13.3 6.8 36.2 36.2 76.1
5/4/2018 22.3 7.0 12.1 11.8 29.4 29.4 88.5
5/3/2018 18.6 11.9 16.0 17.6 18.6 17.6 93.8
5/2/2018 25.5 13.1 19.8 0.0 1.4 0.0 47.9
5/1/2018 26.1 6.2 16.0 0.0 17.4 0.0 39.4